Flag for Germany Weather past 2 weeks in Dillenburg, Hesse, Germany

Now
61 °F

Fog.


Feels Like: 61 °F
Forecast: 56 / 87 °F
Wind: 6 mph from Southeast

Location: Hessen

Current Time: Aug 5, 2015 at 9:27:16 AM

Latest Report: Aug 5, 2015 at 8:50 AM


Visibility: N/A

Pressure: 30.15 "Hg

Humidity: 88%

Dew point: 57 °F

Location of DillenburgLocation

Historic Weather in Dillenburg — Graph

°F

Dillenburg temperature yesterday

Maximum temperature yesterday: 75 °F (at 9:50 AM)
Minimum temperature yesterday: 55 °F (at 8:20 PM)
Average temperature yesterday: 64 °F

Past Weeks' High & Low Weather Summary

 TemperatureHumidityPressure
High82 °F (Aug 3, 4:20 PM)100% (Jul 22, 10:50 AM)30.18 "Hg (Jul 22, 10:50 AM)
Low48 °F (Jul 26, 7:50 AM)37% (Aug 3, 3:50 PM)29.59 "Hg (Jul 27, 7:50 AM)
Average63 °F72%29.95 "Hg
* Reported Jul 21 7:50 AM — Aug 5 7:50 AM, Dillenburg, Weather by CustomWeather, © 2015

Note: Actual official high and low records may vary slightly from our data, if they occured in-between our weather recording intervals... More about our weather records

Advertising

Dillenburg weather history for previous 24 hours

 ConditionsComfort  
Time TempWeatherWind HumidityBarometerVisibility
7:50 AM
Wed, Aug 5
57 °FFog.3 mph94%30.15 "HgN/A
9:50 PM
Tue, Aug 4
55 °FFog.6 mph100%30.09 "Hg1 mi
9:20 PM55 °FFog.6 mph100%30.09 "Hg2 mi
8:50 PM55 °FFog.9 mph100%30.09 "Hg3 mi
8:20 PM55 °FBroken clouds.12 mph100%30.09 "HgN/A
7:50 PM57 °FPartly sunny.12 mph94%30.07 "HgN/A
7:20 PM57 °FBroken clouds.12 mph100%30.07 "HgN/A
6:50 PM57 °FBroken clouds.13 mph100%30.04 "HgN/A
6:20 PM57 °FLight rain. Fog.16 mph100%30.04 "Hg3 mi
5:50 PM57 °FRain. Fog.21 mph100%30.04 "Hg2 mi
5:20 PM64 °FHeavy rain. Fog.6 mph94%30.01 "Hg2 mi
4:50 PM64 °FPartly sunny.12 mph94%30.01 "Hg6 mi
4:20 PM63 °FPartly sunny.10 mph100%30.04 "Hg5 mi
3:50 PM63 °FMore clouds than sun.9 mph100%30.01 "HgN/A
3:20 PM64 °FPartly sunny.12 mph94%30.01 "HgN/A
2:50 PM63 °FFog.7 mph100%30.01 "HgN/A
2:20 PM63 °FLight rain. Broken clouds.9 mph100%30.01 "HgN/A
1:50 PM64 °FLight rain. Broken clouds.7 mph94%30.01 "HgN/A
1:20 PM66 °FScattered showers. Broken clouds.8 mph83%30.01 "HgN/A
12:50 PM68 °FSunny.12 mph73%30.01 "Hg10 mi
12:20 PM70 °FSunny.13 mph64%30.01 "Hg10 mi
11:50 AM72 °FSunny.12 mph61%29.98 "Hg10 mi
11:20 AM73 °FSunny.13 mph57%29.98 "Hg10 mi
10:50 AM73 °FSunny.12 mph57%29.95 "Hg10 mi
10:20 AM75 °FSunny.7 mph61%29.92 "Hg10 mi
9:50 AM75 °FSunny.9 mph61%29.92 "Hg10 mi
9:20 AM73 °FSunny.8 mph57%29.95 "Hg10 mi
Weather by CustomWeather, © 2015

See weather overviewHow to use our weather pages